Location: ?
(35.4554°N, 139.3092°E)
Time: 20:59:26
(UTC+00:00)

SL-16 R/B - Pass Details

Date: 21 April 2021
Orbit: 840 x 849 km, 71.0° (Epoch: 10 May)

Event Time Altitude Azimuth Distance (km) Brightness Sun altitude
Rises 13:03:59 0° 331° (NNW) 3,414 6.3 -37.2°
Reaches altitude 10° 13:06:32 10° 326° (NW) 2,474 5.4 -37.5°
Enters shadow 13:09:25 29° 309° (NW) 1,519 3.9 -37.7°
